Language: 


Des rapports , des résumés tant et plus, au choix de chacun....


Données statistiques de la station
Quotidien Rapport Mars 9, 2017 Unités:  Métrique    Anglais   les deux
« Précédent Jour
Suivant Jour »
Quotidien Hebdomadaire Mensuel Annuel Actuel
  Haut: Bas: Moyen:
Température: 16.6 °C 5.9 °C 11.6 °C
Pt de rosée: 12.2 °C 3.9 °C 9.8 °C
Humidité: 98 % 69 % 89 %
Vitesse du vent: 28.0 km/h 0.0 km/h 10.9 km/h
Rafales: 30.2 km/h - -
Vent:- - WSW
Pression: 1026.0 hPa 1016.1 hPa -
Précipitation: 0.5 mm    
Historical Graphs
 
 
Données statistiques pour Mars 9, 2017
Heure Température Point de rosée Pression Vent Vitesse du vent Refales Humidité Pluie (taux horaire)
00:04 10.7 °C 10.1 °C 1016.1 hPa WSW 12.6 km/h 16.6 km/h 96 % 0.0 mm
00:09 10.7 °C 10.1 °C 1016.8 hPa WSW 14.8 km/h 17.2 km/h 96 % 0.0 mm
00:14 10.7 °C 10.1 °C 1016.8 hPa WSW 11.1 km/h 20.1 km/h 96 % 0.0 mm
00:19 10.7 °C 10.1 °C 1016.8 hPa WSW 12.2 km/h 20.1 km/h 96 % 0.0 mm
00:24 10.7 °C 10.1 °C 1016.8 hPa WSW 10.1 km/h 20.1 km/h 96 % 0.0 mm
00:29 10.7 °C 10.1 °C 1016.8 hPa WSW 13.7 km/h 20.1 km/h 96 % 0.0 mm
00:34 10.7 °C 10.1 °C 1016.8 hPa West 19.1 km/h 19.1 km/h 96 % 0.0 mm
00:39 10.7 °C 10.1 °C 1016.8 hPa WSW 13.0 km/h 19.1 km/h 96 % 0.0 mm
00:44 10.7 °C 10.1 °C 1016.8 hPa WSW 13.0 km/h 19.8 km/h 96 % 0.0 mm
00:49 10.7 °C 10.1 °C 1016.8 hPa WSW 13.0 km/h 19.8 km/h 96 % 0.0 mm
00:54 10.7 °C 10.1 °C 1016.8 hPa WSW 17.7 km/h 21.2 km/h 96 % 0.0 mm
00:59 10.7 °C 10.1 °C 1016.8 hPa WSW 11.9 km/h 21.2 km/h 96 % 0.0 mm
01:04 10.7 °C 10.1 °C 1016.8 hPa WSW 18.0 km/h 22.4 km/h 96 % 0.0 mm
01:09 10.7 °C 10.1 °C 1016.8 hPa WSW 16.9 km/h 23.3 km/h 96 % 0.0 mm
01:14 10.7 °C 10.1 °C 1016.8 hPa West 16.3 km/h 23.3 km/h 96 % 0.0 mm
01:19 10.7 °C 10.1 °C 1016.8 hPa West 17.2 km/h 23.8 km/h 96 % 0.0 mm
01:24 10.7 °C 10.1 °C 1016.8 hPa WSW 12.2 km/h 24.5 km/h 96 % 0.0 mm
01:29 10.7 °C 10.1 °C 1016.8 hPa WSW 13.7 km/h 24.5 km/h 96 % 0.0 mm
01:34 10.7 °C 10.1 °C 1016.8 hPa West 21.2 km/h 21.2 km/h 96 % 0.0 mm
01:39 10.7 °C 10.1 °C 1016.8 hPa WSW 16.9 km/h 22.4 km/h 96 % 0.0 mm
01:44 10.7 °C 10.1 °C 1016.8 hPa WSW 14.0 km/h 22.4 km/h 96 % 0.0 mm
01:49 10.7 °C 10.2 °C 1016.8 hPa WSW 15.8 km/h 17.7 km/h 97 % 0.0 mm
01:54 10.7 °C 10.1 °C 1016.8 hPa WSW 11.6 km/h 18.0 km/h 96 % 0.0 mm
01:59 10.7 °C 10.1 °C 1016.8 hPa West 12.2 km/h 18.0 km/h 96 % 0.0 mm
02:04 10.7 °C 10.1 °C 1016.8 hPa WSW 16.3 km/h 16.9 km/h 96 % 0.0 mm
02:09 10.7 °C 10.1 °C 1016.8 hPa West 16.6 km/h 21.2 km/h 96 % 0.0 mm
02:14 10.7 °C 10.1 °C 1016.8 hPa WSW 13.0 km/h 21.2 km/h 96 % 0.0 mm
02:19 10.7 °C 10.2 °C 1016.8 hPa WSW 16.3 km/h 17.7 km/h 97 % 0.0 mm
02:24 10.6 °C 10.1 °C 1016.8 hPa WSW 16.6 km/h 16.6 km/h 97 % 0.0 mm
02:29 10.6 °C 10.1 °C 1016.8 hPa WSW 19.1 km/h 19.1 km/h 97 % 0.0 mm
02:34 10.6 °C 10.1 °C 1016.8 hPa SW 16.9 km/h 23.0 km/h 97 % 0.0 mm
02:39 10.6 °C 10.1 °C 1016.8 hPa WSW 17.7 km/h 23.0 km/h 97 % 0.0 mm
02:44 10.6 °C 10.1 °C 1016.8 hPa WSW 17.2 km/h 21.2 km/h 97 % 0.0 mm
02:49 10.7 °C 10.2 °C 1016.8 hPa WSW 13.7 km/h 20.9 km/h 97 % 0.0 mm
02:54 10.7 °C 10.2 °C 1016.8 hPa WSW 14.0 km/h 20.9 km/h 97 % 0.0 mm
02:59 10.7 °C 10.2 °C 1016.8 hPa WSW 11.9 km/h 19.8 km/h 97 % 0.0 mm
03:04 10.7 °C 10.2 °C 1016.8 hPa WSW 15.4 km/h 19.5 km/h 97 % 0.0 mm
03:09 10.7 °C 10.2 °C 1018.2 hPa WSW 11.1 km/h 16.9 km/h 97 % 0.0 mm
03:14 10.7 °C 10.2 °C 1018.2 hPa WSW 11.9 km/h 15.8 km/h 97 % 0.0 mm
03:19 10.7 °C 10.2 °C 1018.2 hPa WSW 12.2 km/h 15.8 km/h 97 % 0.0 mm
03:24 10.7 °C 10.2 °C 1016.8 hPa WSW 12.6 km/h 16.6 km/h 97 % 0.0 mm
03:29 10.6 °C 10.1 °C 1016.8 hPa WSW 11.9 km/h 16.6 km/h 97 % 0.0 mm
03:34 10.6 °C 10.1 °C 1016.8 hPa WSW 11.9 km/h 16.6 km/h 97 % 0.0 mm
03:39 10.6 °C 10.1 °C 1016.8 hPa West 9.7 km/h 16.3 km/h 97 % 0.0 mm
03:44 10.7 °C 10.2 °C 1016.8 hPa WSW 14.0 km/h 16.9 km/h 97 % 0.0 mm
03:49 10.7 °C 10.2 °C 1016.8 hPa West 19.5 km/h 20.1 km/h 97 % 0.0 mm
03:54 10.7 °C 10.2 °C 1016.8 hPa West 16.3 km/h 20.1 km/h 97 % 0.0 mm
03:59 10.7 °C 10.2 °C 1016.8 hPa WSW 17.7 km/h 21.2 km/h 97 % 0.0 mm
04:04 10.7 °C 10.2 °C 1016.8 hPa West 13.7 km/h 21.2 km/h 97 % 0.0 mm
04:09 10.7 °C 10.2 °C 1016.8 hPa WSW 14.0 km/h 20.1 km/h 97 % 0.0 mm
04:14 10.7 °C 10.2 °C 1016.8 hPa WSW 10.5 km/h 19.5 km/h 97 % 0.0 mm
04:19 10.7 °C 10.2 °C 1016.8 hPa WSW 13.7 km/h 18.0 km/h 97 % 0.0 mm
04:24 10.7 °C 10.2 °C 1018.2 hPa WSW 10.5 km/h 18.0 km/h 97 % 0.0 mm
04:29 10.7 °C 10.2 °C 1018.2 hPa WSW 14.0 km/h 19.5 km/h 97 % 0.3 mm
04:34 10.7 °C 10.2 °C 1018.2 hPa West 13.7 km/h 20.1 km/h 97 % 0.3 mm
04:39 10.7 °C 10.2 °C 1016.8 hPa SW 9.7 km/h 20.1 km/h 97 % 0.3 mm
04:44 10.7 °C 10.2 °C 1016.8 hPa WSW 9.7 km/h 17.2 km/h 97 % 0.3 mm
04:49 10.7 °C 10.2 °C 1016.8 hPa WSW 14.0 km/h 18.0 km/h 97 % 0.3 mm
04:54 10.7 °C 10.2 °C 1016.8 hPa WSW 12.2 km/h 18.0 km/h 97 % 0.3 mm
04:59 10.6 °C 10.1 °C 1016.8 hPa WSW 13.7 km/h 16.6 km/h 97 % 0.3 mm
05:04 10.6 °C 10.1 °C 1016.8 hPa WSW 13.0 km/h 16.9 km/h 97 % 0.5 mm
05:09 10.7 °C 10.2 °C 1016.8 hPa SW 15.1 km/h 16.9 km/h 97 % 0.5 mm
05:14 10.6 °C 10.1 °C 1016.8 hPa WSW 11.9 km/h 16.6 km/h 97 % 0.5 mm
05:19 10.6 °C 10.1 °C 1016.8 hPa WSW 14.0 km/h 16.3 km/h 97 % 0.5 mm
05:24 10.6 °C 10.1 °C 1016.8 hPa WSW 13.0 km/h 16.3 km/h 97 % 0.5 mm
05:29 10.6 °C 10.1 °C 1016.8 hPa WSW 13.0 km/h 15.8 km/h 97 % 0.3 mm
05:34 10.6 °C 10.1 °C 1016.8 hPa West 13.7 km/h 17.2 km/h 97 % 0.3 mm
05:39 10.6 °C 10.1 °C 1016.8 hPa WSW 10.1 km/h 17.2 km/h 97 % 0.3 mm
05:44 10.6 °C 10.1 °C 1016.8 hPa WSW 11.9 km/h 17.2 km/h 97 % 0.3 mm
05:49 10.6 °C 10.1 °C 1016.8 hPa WSW 14.8 km/h 20.6 km/h 97 % 0.3 mm
05:54 10.6 °C 10.1 °C 1016.1 hPa WSW 10.1 km/h 20.6 km/h 97 % 0.3 mm
05:59 10.6 °C 10.1 °C 1016.1 hPa WSW 9.7 km/h 17.2 km/h 97 % 0.3 mm
06:04 10.6 °C 10.1 °C 1016.1 hPa WSW 9.7 km/h 16.9 km/h 97 % 0.0 mm
06:09 10.6 °C 10.1 °C 1016.1 hPa WSW 15.1 km/h 17.7 km/h 97 % 0.0 mm
06:14 10.7 °C 10.2 °C 1016.1 hPa WSW 17.7 km/h 20.9 km/h 97 % 0.0 mm
06:19 10.7 °C 10.4 °C 1016.1 hPa West 18.0 km/h 20.9 km/h 98 % 0.0 mm
06:24 10.7 °C 10.4 °C 1016.1 hPa WSW 12.6 km/h 23.0 km/h 98 % 0.0 mm
06:29 10.7 °C 10.4 °C 1016.1 hPa WSW 20.9 km/h 23.8 km/h 98 % 0.0 mm
06:34 10.7 °C 10.4 °C 1016.1 hPa West 17.7 km/h 25.6 km/h 98 % 0.0 mm
06:39 10.8 °C 10.3 °C 1016.8 hPa West 14.8 km/h 25.6 km/h 97 % 0.0 mm
06:44 10.8 °C 10.3 °C 1016.8 hPa WSW 15.8 km/h 24.5 km/h 97 % 0.0 mm
06:49 10.8 °C 10.3 °C 1016.8 hPa WSW 17.7 km/h 21.9 km/h 97 % 0.0 mm
06:54 10.8 °C 10.3 °C 1016.8 hPa WSW 18.0 km/h 21.2 km/h 97 % 0.0 mm
06:59 10.8 °C 10.3 °C 1016.8 hPa WSW 17.7 km/h 23.8 km/h 97 % 0.0 mm
07:04 10.8 °C 10.3 °C 1016.8 hPa West 25.3 km/h 25.3 km/h 97 % 0.0 mm
07:09 10.8 °C 10.3 °C 1016.8 hPa West 16.9 km/h 25.3 km/h 97 % 0.0 mm
07:14 10.8 °C 10.3 °C 1016.8 hPa West 19.8 km/h 25.3 km/h 97 % 0.0 mm
07:19 10.8 °C 10.3 °C 1016.8 hPa West 21.2 km/h 24.5 km/h 97 % 0.0 mm
07:24 10.9 °C 10.4 °C 1016.8 hPa WSW 19.8 km/h 24.8 km/h 97 % 0.0 mm
07:29 10.9 °C 10.4 °C 1016.8 hPa West 21.2 km/h 26.2 km/h 97 % 0.0 mm
07:34 10.9 °C 10.4 °C 1016.8 hPa West 16.3 km/h 26.7 km/h 97 % 0.0 mm
07:39 10.9 °C 10.4 °C 1016.8 hPa WSW 17.7 km/h 29.1 km/h 97 % 0.0 mm
07:44 11.0 °C 10.5 °C 1016.8 hPa West 20.6 km/h 29.1 km/h 97 % 0.0 mm
07:49 11.0 °C 10.4 °C 1016.8 hPa West 12.6 km/h 30.2 km/h 96 % 0.0 mm
07:54 11.0 °C 10.4 °C 1016.8 hPa West 15.8 km/h 30.2 km/h 96 % 0.0 mm
07:59 11.0 °C 10.4 °C 1016.8 hPa WSW 17.2 km/h 23.8 km/h 96 % 0.0 mm
08:04 11.0 °C 10.4 °C 1016.8 hPa WSW 15.8 km/h 23.3 km/h 96 % 0.0 mm
08:09 11.1 °C 10.4 °C 1016.8 hPa West 17.7 km/h 20.9 km/h 96 % 0.0 mm
08:14 11.1 °C 10.4 °C 1016.8 hPa West 9.3 km/h 18.3 km/h 96 % 0.0 mm
08:19 11.1 °C 10.4 °C 1016.8 hPa WSW 16.6 km/h 21.2 km/h 96 % 0.0 mm
08:24 11.1 °C 10.4 °C 1016.8 hPa West 19.5 km/h 24.5 km/h 96 % 0.0 mm
08:29 11.1 °C 10.3 °C 1016.8 hPa West 25.9 km/h 27.7 km/h 95 % 0.0 mm
08:34 11.2 °C 10.4 °C 1016.8 hPa WSW 16.3 km/h 27.7 km/h 95 % 0.0 mm
08:39 11.2 °C 10.4 °C 1016.8 hPa WSW 20.1 km/h 27.0 km/h 95 % 0.0 mm
08:44 11.2 °C 10.4 °C 1016.8 hPa WSW 15.8 km/h 27.0 km/h 95 % 0.0 mm
08:49 11.2 °C 10.4 °C 1016.8 hPa West 20.6 km/h 25.9 km/h 95 % 0.0 mm
08:54 11.2 °C 10.4 °C 1016.8 hPa West 20.1 km/h 25.9 km/h 95 % 0.0 mm
08:59 11.2 °C 10.4 °C 1016.8 hPa WSW 20.6 km/h 24.8 km/h 95 % 0.0 mm
09:04 11.2 °C 10.4 °C 1016.8 hPa West 16.9 km/h 24.8 km/h 95 % 0.0 mm
09:09 11.2 °C 10.4 °C 1016.8 hPa WSW 16.9 km/h 24.5 km/h 95 % 0.0 mm
09:14 11.3 °C 10.5 °C 1016.8 hPa WSW 23.8 km/h 24.8 km/h 95 % 0.0 mm
09:19 11.3 °C 10.5 °C 1016.8 hPa West 9.7 km/h 24.8 km/h 95 % 0.0 mm
09:24 11.3 °C 10.5 °C 1018.2 hPa West 12.2 km/h 20.9 km/h 95 % 0.0 mm
09:29 11.4 °C 10.6 °C 1018.2 hPa West 5.0 km/h 19.5 km/h 95 % 0.0 mm
09:34 11.4 °C 10.6 °C 1018.2 hPa NW 10.1 km/h 21.2 km/h 95 % 0.0 mm
09:39 11.4 °C 10.6 °C 1018.2 hPa NW 3.2 km/h 21.2 km/h 95 % 0.0 mm
09:44 11.4 °C 10.6 °C 1018.2 hPa West 6.9 km/h 19.5 km/h 95 % 0.0 mm
09:49 11.4 °C 10.6 °C 1018.2 hPa WNW 6.9 km/h 21.2 km/h 95 % 0.0 mm
09:54 11.4 °C 10.7 °C 1018.2 hPa SSW 20.6 km/h 21.2 km/h 95 % 0.0 mm
10:00 11.4 °C 10.7 °C 1018.2 hPa West 12.6 km/h 20.6 km/h 95 % 0.0 mm
10:05 11.4 °C 10.7 °C 1018.2 hPa WSW 5.0 km/h 23.0 km/h 95 % 0.0 mm
10:10 11.6 °C 10.8 °C 1018.8 hPa WSW 10.1 km/h 23.0 km/h 95 % 0.0 mm
10:15 11.7 °C 10.9 °C 1018.8 hPa West 16.6 km/h 17.2 km/h 95 % 0.0 mm
10:20 11.7 °C 10.9 °C 1018.8 hPa WSW 16.3 km/h 17.7 km/h 95 % 0.0 mm
10:24 11.8 °C 11.0 °C 1018.8 hPa West 10.5 km/h 17.7 km/h 95 % 0.0 mm
10:29 11.8 °C 11.1 °C 1018.8 hPa WSW 9.3 km/h 19.1 km/h 95 % 0.0 mm
10:35 11.9 °C 11.2 °C 1018.8 hPa West 17.7 km/h 20.1 km/h 95 % 0.0 mm
10:40 11.9 °C 11.2 °C 1018.8 hPa WSW 12.2 km/h 20.1 km/h 95 % 0.0 mm
10:45 12.1 °C 11.3 °C 1018.8 hPa WSW 13.7 km/h 20.1 km/h 95 % 0.0 mm
10:50 12.2 °C 11.5 °C 1018.8 hPa WSW 12.2 km/h 20.9 km/h 95 % 0.0 mm
10:55 12.2 °C 11.5 °C 1018.8 hPa WSW 15.8 km/h 21.6 km/h 95 % 0.0 mm
11:00 12.6 °C 11.8 °C 1018.8 hPa WSW 16.9 km/h 21.6 km/h 95 % 0.0 mm
11:05 12.7 °C 11.9 °C 1018.8 hPa West 15.4 km/h 21.2 km/h 95 % 0.0 mm
11:10 12.7 °C 11.9 °C 1018.8 hPa West 20.9 km/h 20.9 km/h 95 % 0.0 mm
11:15 12.7 °C 11.9 °C 1018.8 hPa WSW 17.7 km/h 24.5 km/h 95 % 0.0 mm
11:20 12.7 °C 11.9 °C 1018.8 hPa WSW 17.2 km/h 24.5 km/h 95 % 0.0 mm
11:25 12.7 °C 11.9 °C 1018.8 hPa West 16.9 km/h 20.6 km/h 95 % 0.0 mm
11:30 12.8 °C 12.1 °C 1018.8 hPa West 19.5 km/h 23.0 km/h 95 % 0.0 mm
11:35 12.8 °C 11.9 °C 1018.8 hPa West 20.6 km/h 23.0 km/h 94 % 0.0 mm
11:40 12.8 °C 11.9 °C 1018.8 hPa West 15.8 km/h 21.6 km/h 94 % 0.0 mm
11:45 12.8 °C 11.9 °C 1018.8 hPa WSW 13.0 km/h 21.6 km/h 94 % 0.0 mm
11:50 12.8 °C 11.9 °C 1018.8 hPa WSW 12.2 km/h 19.5 km/h 94 % 0.0 mm
11:55 12.8 °C 11.9 °C 1018.8 hPa NNW 13.0 km/h 18.0 km/h 94 % 0.0 mm
12:00 12.8 °C 11.9 °C 1018.8 hPa West 4.7 km/h 19.8 km/h 94 % 0.0 mm
12:05 12.9 °C 12.0 °C 1018.8 hPa West 4.7 km/h 19.8 km/h 94 % 0.0 mm
12:10 12.9 °C 11.8 °C 1018.8 hPa WSW 12.6 km/h 20.9 km/h 93 % 0.0 mm
12:15 12.9 °C 11.8 °C 1018.8 hPa West 20.6 km/h 22.7 km/h 93 % 0.0 mm
12:20 13.1 °C 11.8 °C 1018.8 hPa NNW 9.3 km/h 25.6 km/h 92 % 0.0 mm
12:25 13.1 °C 12.0 °C 1018.8 hPa NNW 9.0 km/h 25.6 km/h 93 % 0.0 mm
12:30 13.2 °C 12.1 °C 1018.8 hPa WSW 6.1 km/h 15.8 km/h 93 % 0.0 mm
12:35 13.1 °C 11.8 °C 1018.8 hPa South 18.0 km/h 20.9 km/h 92 % 0.0 mm
12:40 13.2 °C 11.9 °C 1018.8 hPa Calm   20.9 km/h 92 % 0.0 mm
12:45 13.3 °C 12.1 °C 1018.8 hPa West 9.0 km/h 16.9 km/h 92 % 0.0 mm
12:50 13.4 °C 12.2 °C 1018.8 hPa West 19.8 km/h 20.6 km/h 92 % 0.0 mm
12:55 13.5 °C 12.2 °C 1018.8 hPa West 12.2 km/h 23.0 km/h 92 % 0.0 mm
13:00 13.6 °C 12.2 °C 1018.8 hPa WSW 14.0 km/h 23.0 km/h 91 % 0.0 mm
13:05 13.8 °C 12.2 °C 1018.8 hPa West 15.4 km/h 24.5 km/h 90 % 0.0 mm
13:10 13.8 °C 11.7 °C 1018.8 hPa West 16.3 km/h 24.5 km/h 87 % 0.0 mm
13:15 14.0 °C 11.9 °C 1018.8 hPa West 12.6 km/h 24.5 km/h 87 % 0.0 mm
13:20 14.0 °C 11.7 °C 1018.8 hPa West 28.0 km/h 28.0 km/h 86 % 0.0 mm
13:25 14.1 °C 11.6 °C 1018.8 hPa West 17.2 km/h 28.0 km/h 85 % 0.0 mm
13:30 14.5 °C 11.7 °C 1018.8 hPa WSW 16.6 km/h 23.8 km/h 83 % 0.0 mm
13:35 14.8 °C 11.2 °C 1018.8 hPa West 17.7 km/h 25.3 km/h 79 % 0.0 mm
13:40 15.1 °C 11.3 °C 1018.8 hPa WNW 14.8 km/h 25.3 km/h 78 % 0.0 mm
13:45 15.1 °C 10.9 °C 1018.8 hPa WNW 13.7 km/h 24.5 km/h 76 % 0.0 mm
13:50 15.0 °C 11.0 °C 1018.8 hPa WSW 16.3 km/h 21.9 km/h 77 % 0.0 mm
13:55 15.0 °C 11.2 °C 1018.8 hPa West 10.8 km/h 20.9 km/h 78 % 0.0 mm
14:00 15.1 °C 11.1 °C 1018.8 hPa SSW 20.6 km/h 21.2 km/h 77 % 0.0 mm
14:05 15.1 °C 11.1 °C 1018.8 hPa West 11.9 km/h 25.3 km/h 77 % 0.0 mm
14:10 15.0 °C 11.0 °C 1018.8 hPa West 6.9 km/h 25.3 km/h 77 % 0.0 mm
14:15 15.1 °C 10.7 °C 1018.8 hPa SW 17.2 km/h 20.9 km/h 75 % 0.0 mm
14:20 15.4 °C 10.8 °C 1018.8 hPa West 15.4 km/h 25.3 km/h 74 % 0.0 mm
14:25 15.4 °C 11.0 °C 1019.9 hPa WNW 6.9 km/h 27.4 km/h 75 % 0.0 mm
14:30 15.2 °C 10.8 °C 1019.9 hPa NNW 5.5 km/h 27.4 km/h 75 % 0.0 mm
14:35 15.0 °C 10.4 °C 1019.9 hPa WNW 14.3 km/h 16.9 km/h 74 % 0.0 mm
14:40 15.1 °C 10.9 °C 1019.9 hPa West 6.4 km/h 15.4 km/h 76 % 0.0 mm
14:45 15.1 °C 10.3 °C 1019.9 hPa West 9.7 km/h 23.3 km/h 73 % 0.0 mm
14:50 15.4 °C 10.8 °C 1019.9 hPa West 9.0 km/h 23.3 km/h 74 % 0.0 mm
14:55 15.2 °C 10.6 °C 1019.9 hPa NNW 12.2 km/h 17.7 km/h 74 % 0.0 mm
15:00 15.8 °C 11.2 °C 1019.9 hPa West 2.6 km/h 17.7 km/h 74 % 0.0 mm
15:05 15.9 °C 11.2 °C 1019.9 hPa West 13.0 km/h 16.6 km/h 74 % 0.0 mm
15:10 16.1 °C 11.0 °C 1020.9 hPa WNW 16.3 km/h 17.2 km/h 72 % 0.0 mm
15:15 16.4 °C 11.2 °C 1020.9 hPa West 13.7 km/h 19.8 km/h 71 % 0.0 mm
15:20 16.4 °C 10.7 °C 1020.9 hPa WNW 5.0 km/h 19.8 km/h 69 % 0.0 mm
15:25 16.2 °C 10.5 °C 1020.9 hPa West 7.9 km/h 19.8 km/h 69 % 0.0 mm
15:30 16.6 °C 10.8 °C 1020.9 hPa West 21.2 km/h 24.8 km/h 69 % 0.0 mm
15:35 16.0 °C 10.3 °C 1020.9 hPa West 12.2 km/h 24.8 km/h 69 % 0.0 mm
15:40 16.2 °C 10.5 °C 1020.9 hPa West 10.5 km/h 22.7 km/h 69 % 0.0 mm
15:45 15.8 °C 10.1 °C 1020.9 hPa West 9.3 km/h 20.1 km/h 69 % 0.0 mm
15:50 16.1 °C 10.4 °C 1020.9 hPa WNW 4.7 km/h 20.1 km/h 69 % 0.0 mm
15:55 16.1 °C 10.6 °C 1020.9 hPa West 15.8 km/h 21.2 km/h 70 % 0.0 mm
16:00 16.2 °C 10.7 °C 1020.9 hPa West 9.3 km/h 21.2 km/h 70 % 0.0 mm
16:05 16.6 °C 11.1 °C 1020.9 hPa West 10.5 km/h 20.1 km/h 70 % 0.0 mm
16:10 16.4 °C 10.8 °C 1020.9 hPa WNW 9.7 km/h 20.1 km/h 69 % 0.0 mm
16:15 16.4 °C 10.8 °C 1020.9 hPa WNW 7.9 km/h 20.1 km/h 69 % 0.0 mm
16:20 16.0 °C 10.3 °C 1020.9 hPa West 10.5 km/h 20.9 km/h 69 % 0.0 mm
16:25 15.8 °C 10.3 °C 1020.9 hPa West 17.2 km/h 20.9 km/h 70 % 0.0 mm
16:30 15.8 °C 10.6 °C 1020.9 hPa WSW 16.6 km/h 19.8 km/h 71 % 0.0 mm
16:35 15.9 °C 11.1 °C 1020.9 hPa WSW 17.2 km/h 19.8 km/h 73 % 0.0 mm
16:40 15.8 °C 10.9 °C 1020.9 hPa WSW 13.7 km/h 21.2 km/h 73 % 0.0 mm
16:45 15.3 °C 10.7 °C 1020.9 hPa West 17.2 km/h 21.2 km/h 74 % 0.0 mm
16:50 14.8 °C 10.2 °C 1020.9 hPa West 12.6 km/h 19.1 km/h 74 % 0.0 mm
16:55 14.5 °C 10.3 °C 1019.9 hPa West 11.9 km/h 17.2 km/h 76 % 0.0 mm
16:56 14.4 °C 10.2 °C 1019.9 hPa West 13.0 km/h 17.2 km/h 76 % 0.0 mm
17:01 14.3 °C 10.3 °C 1019.9 hPa SW 4.0 km/h 17.2 km/h 77 % 0.0 mm
17:06 14.4 °C 10.6 °C 1019.9 hPa West 10.5 km/h 16.9 km/h 78 % 0.0 mm
17:11 14.3 °C 10.7 °C 1020.9 hPa WNW 9.7 km/h 20.9 km/h 79 % 0.0 mm
17:12 14.3 °C 10.7 °C 1020.9 hPa NW 5.5 km/h 20.9 km/h 79 % 0.0 mm
17:17 14.4 °C 11.0 °C 1020.9 hPa West 4.7 km/h 20.9 km/h 80 % 0.0 mm
17:22 14.6 °C 11.2 °C 1020.9 hPa West 6.4 km/h 14.0 km/h 80 % 0.0 mm
17:27 14.5 °C 10.9 °C 1021.9 hPa WNW 6.4 km/h 14.0 km/h 79 % 0.0 mm
17:32 14.2 °C 10.6 °C 1021.9 hPa WNW 5.8 km/h 12.6 km/h 79 % 0.0 mm
17:37 14.0 °C 10.4 °C 1021.9 hPa West 5.0 km/h 14.3 km/h 79 % 0.0 mm
17:42 13.7 °C 10.3 °C 1019.9 hPa Calm   14.3 km/h 80 % 0.0 mm
17:47 13.7 °C 10.5 °C 1019.9 hPa West 4.0 km/h 6.9 km/h 81 % 0.0 mm
17:52 13.7 °C 10.5 °C 1019.9 hPa Calm   6.9 km/h 81 % 0.0 mm
17:57 13.6 °C 10.6 °C 1020.9 hPa Calm   6.4 km/h 82 % 0.0 mm
18:02 13.6 °C 10.6 °C 1020.9 hPa Calm   8.7 km/h 82 % 0.0 mm
18:07 13.4 °C 10.6 °C 1020.9 hPa Calm   9.0 km/h 83 % 0.0 mm
18:12 13.2 °C 10.4 °C 1021.9 hPa West 5.5 km/h 9.0 km/h 83 % 0.0 mm
18:17 13.1 °C 10.2 °C 1021.9 hPa Calm   7.9 km/h 83 % 0.0 mm
18:20 12.8 °C 10.0 °C 1021.9 hPa West 5.0 km/h 7.6 km/h 83 % 0.0 mm
18:25 12.7 °C 10.0 °C 1021.9 hPa Calm   7.9 km/h 84 % 0.0 mm
18:30 12.4 °C 9.8 °C 1021.9 hPa Calm   7.9 km/h 84 % 0.0 mm
18:35 12.3 °C 9.9 °C 1021.9 hPa West 5.5 km/h 6.1 km/h 85 % 0.0 mm
18:40 12.2 °C 9.8 °C 1021.9 hPa West 4.3 km/h 6.1 km/h 85 % 0.0 mm
18:45 12.2 °C 9.9 °C 1021.9 hPa West 5.5 km/h 6.4 km/h 86 % 0.0 mm
18:50 12.1 °C 9.8 °C 1021.9 hPa West 5.5 km/h 7.6 km/h 86 % 0.0 mm
18:55 11.9 °C 9.8 °C 1021.9 hPa West 4.0 km/h 9.0 km/h 87 % 0.0 mm
19:01 11.9 °C 10.1 °C 1021.9 hPa West 4.3 km/h 9.0 km/h 88 % 0.0 mm
19:06 11.9 °C 10.1 °C 1021.9 hPa West 9.7 km/h 9.7 km/h 88 % 0.0 mm
19:11 11.9 °C 10.2 °C 1022.9 hPa WNW 5.5 km/h 9.7 km/h 89 % 0.0 mm
19:16 11.8 °C 10.1 °C 1022.9 hPa Calm   9.3 km/h 89 % 0.0 mm
19:21 11.8 °C 10.0 °C 1022.9 hPa Calm   7.6 km/h 89 % 0.0 mm
19:26 11.7 °C 10.1 °C 1022.9 hPa West 2.6 km/h 4.7 km/h 90 % 0.0 mm
19:31 11.6 °C 10.0 °C 1022.9 hPa Calm   5.5 km/h 90 % 0.0 mm
19:33 11.6 °C 10.0 °C 1022.9 hPa Calm   5.5 km/h 90 % 0.0 mm
19:34 11.4 °C 9.9 °C 1022.9 hPa Calm   5.5 km/h 90 % 0.0 mm
19:38 11.4 °C 9.8 °C 1022.9 hPa WNW 3.2 km/h 4.7 km/h 90 % 0.0 mm
19:42 11.2 °C 9.6 °C 1022.9 hPa Calm   4.7 km/h 90 % 0.0 mm
19:43 11.2 °C 9.4 °C 1022.9 hPa Calm   4.7 km/h 89 % 0.0 mm
19:44 11.2 °C 9.4 °C 1022.9 hPa Calm   4.3 km/h 89 % 0.0 mm
19:49 11.0 °C 9.2 °C 1022.9 hPa WNW 3.5 km/h 4.3 km/h 89 % 0.0 mm
19:50 11.0 °C 9.2 °C 1022.9 hPa Calm   4.3 km/h 89 % 0.0 mm
19:55 10.8 °C 8.9 °C 1022.9 hPa SW 1.4 km/h 3.5 km/h 88 % 0.0 mm
20:00 10.6 °C 8.5 °C 1022.9 hPa Calm   3.2 km/h 87 % 0.0 mm
20:05 10.5 °C 8.2 °C 1022.9 hPa West 3.2 km/h 6.1 km/h 86 % 0.0 mm
20:10 10.4 °C 8.5 °C 1023.9 hPa Calm   6.1 km/h 88 % 0.0 mm
20:15 10.4 °C 8.5 °C 1023.9 hPa West 5.0 km/h 6.4 km/h 88 % 0.0 mm
20:20 10.1 °C 8.2 °C 1023.9 hPa Calm   6.4 km/h 88 % 0.0 mm
20:25 10.0 °C 8.1 °C 1023.9 hPa Calm   6.4 km/h 88 % 0.0 mm
20:30 9.9 °C 8.2 °C 1023.9 hPa Calm   5.5 km/h 89 % 0.0 mm
20:35 9.6 °C 7.9 °C 1023.9 hPa Calm     89 % 0.0 mm
20:40 9.5 °C 7.9 °C 1023.9 hPa Calm   2.6 km/h 90 % 0.0 mm
20:45 9.3 °C 7.8 °C 1023.9 hPa NW 3.2 km/h 6.4 km/h 90 % 0.0 mm
20:50 9.4 °C 7.5 °C 1023.9 hPa North 3.2 km/h 6.9 km/h 88 % 0.0 mm
20:55 9.4 °C 7.3 °C 1024.9 hPa Calm   6.9 km/h 87 % 0.0 mm
21:00 9.5 °C 7.3 °C 1024.9 hPa North 6.9 km/h 7.6 km/h 86 % 0.0 mm
21:05 9.5 °C 7.1 °C 1024.9 hPa NNE 5.8 km/h 13.0 km/h 85 % 0.0 mm
21:10 9.5 °C 7.1 °C 1024.9 hPa NNE 6.9 km/h 13.7 km/h 85 % 0.0 mm
21:15 9.4 °C 6.8 °C 1024.9 hPa NE 9.7 km/h 14.0 km/h 84 % 0.0 mm
21:20 9.2 °C 6.5 °C 1024.9 hPa NNE 10.1 km/h 14.0 km/h 83 % 0.0 mm
21:25 9.1 °C 6.4 °C 1023.9 hPa NNE 5.8 km/h 12.6 km/h 83 % 0.0 mm
21:30 8.9 °C 6.2 °C 1023.9 hPa NE 4.7 km/h 12.2 km/h 83 % 0.0 mm
21:35 8.6 °C 5.9 °C 1023.9 hPa NE 6.9 km/h 12.2 km/h 83 % 0.0 mm
21:40 8.4 °C 5.7 °C 1024.9 hPa NE 4.7 km/h 9.0 km/h 83 % 0.0 mm
21:45 8.3 °C 5.6 °C 1024.9 hPa NE 3.2 km/h 7.6 km/h 83 % 0.0 mm
21:50 8.1 °C 5.4 °C 1024.9 hPa Calm   6.4 km/h 83 % 0.0 mm
21:55 7.9 °C 5.2 °C 1024.9 hPa NE 6.9 km/h 6.9 km/h 83 % 0.0 mm
22:00 7.8 °C 5.1 °C 1024.9 hPa NNE 5.5 km/h 7.6 km/h 83 % 0.0 mm
22:05 7.7 °C 5.2 °C 1024.9 hPa NNE 6.1 km/h 7.6 km/h 84 % 0.0 mm
22:10 7.7 °C 5.1 °C 1024.9 hPa Calm   6.1 km/h 84 % 0.0 mm
22:15 7.6 °C 5.0 °C 1024.9 hPa Calm   5.0 km/h 84 % 0.0 mm
22:20 7.3 °C 4.8 °C 1024.9 hPa Calm   5.0 km/h 84 % 0.0 mm
22:25 7.3 °C 4.7 °C 1026.0 hPa Calm   5.0 km/h 84 % 0.0 mm
22:30 6.9 °C 4.4 °C 1026.0 hPa NNE 2.1 km/h 4.3 km/h 84 % 0.0 mm
22:35 6.8 °C 4.2 °C 1026.0 hPa Calm   4.3 km/h 84 % 0.0 mm
22:40 6.6 °C 4.2 °C 1026.0 hPa NNE 5.0 km/h 5.0 km/h 85 % 0.0 mm
22:45 6.4 °C 4.1 °C 1026.0 hPa NNE 2.1 km/h 6.9 km/h 85 % 0.0 mm
22:50 6.4 °C 4.3 °C 1026.0 hPa NE 5.0 km/h 6.9 km/h 86 % 0.0 mm
22:55 6.4 °C 4.3 °C 1026.0 hPa NE 6.1 km/h 6.9 km/h 86 % 0.0 mm
23:00 6.6 °C 4.6 °C 1026.0 hPa NNE 9.0 km/h 9.7 km/h 87 % 0.0 mm
23:05 6.7 °C 4.7 °C 1026.0 hPa NNE 4.3 km/h 10.1 km/h 87 % 0.0 mm
23:10 6.6 °C 4.6 °C 1026.0 hPa NNE 5.0 km/h 10.1 km/h 87 % 0.0 mm
23:15 6.4 °C 4.3 °C 1026.0 hPa NNE 6.9 km/h 9.0 km/h 86 % 0.0 mm
23:20 6.4 °C 4.2 °C 1026.0 hPa North 2.1 km/h 6.9 km/h 86 % 0.0 mm
23:25 6.3 °C 4.1 °C 1026.0 hPa NNE 4.7 km/h 6.9 km/h 86 % 0.0 mm
23:30 6.1 °C 3.9 °C 1026.0 hPa NNE 5.5 km/h 6.9 km/h 86 % 0.0 mm
23:36 6.1 °C 4.1 °C 1026.0 hPa NE 5.5 km/h 6.9 km/h 87 % 0.0 mm
23:41 6.1 °C 4.1 °C 1026.0 hPa NE 5.5 km/h 7.6 km/h 87 % 0.0 mm
23:46 6.0 °C 4.0 °C 1026.0 hPa NE 7.2 km/h 10.5 km/h 87 % 0.0 mm
23:51 6.0 °C 4.0 °C 1026.0 hPa NE 5.5 km/h 10.5 km/h 87 % 0.0 mm
23:56 5.9 °C 3.9 °C 1026.0 hPa NE 4.7 km/h 6.9 km/h 87 % 0.0 mm
Le Gheer Warneton
Courtoisie de Weather Underground - 2.25 mb

Mise a jour : 17-12-17 07:17:12
Généré par Cumulus 1.9.4 (1099)